Time,TemperatureF,DewpointF,PressureIn,WindDirection,WindDirectionDegrees,WindSpeedMPH,WindSpeedGustMPH,Humidity,HourlyPrecipIn,Conditions,Clouds,dailyrainin,SolarRadiationWatts/m^2,SoftwareType,DateUTC
2013-06-16 00:01:00,52.3,47.0,29.42,WSW,246,0.0,1.0,82,0.00,,,0.00,0,WeatherCatV1.15B25,2013-06-16 04:01:00,
2013-06-16 00:06:00,52.1,46.8,29.42,WSW,246,0.0,0.0,82,0.00,,,0.00,0,WeatherCatV1.15B25,2013-06-16 04:06:00,
2013-06-16 00:11:00,51.9,46.9,29.42,WSW,246,0.0,0.0,83,0.00,,,0.00,0,WeatherCatV1.15B25,2013-06-16 04:11:00,
2013-06-16 00:16:00,51.8,46.8,29.42,WSW,246,0.0,0.0,83,0.00,,,0.00,0,WeatherCatV1.15B25,2013-06-16 04:16:00,
2013-06-16 00:21:00,51.7,47.0,29.42,WSW,246,0.0,0.0,84,0.00,,,0.00,0,WeatherCatV1.15B25,2013-06-16 04:21:00,
2013-06-16 00:26:00,51.5,46.8,29.42,WSW,246,0.0,0.0,84,0.00,,,0.00,0,WeatherCatV1.15B25,2013-06-16 04:26:00,
2013-06-16 00:31:00,51.4,46.7,29.42,WSW,246,0.0,0.0,84,0.00,,,0.00,0,WeatherCatV1.15B25,2013-06-16 04:31:00,
2013-06-16 00:36:00,51.2,46.5,29.42,WSW,246,0.0,0.0,84,0.00,,,0.00,0,WeatherCatV1.15B25,2013-06-16 04:36:00,
2013-06-16 00:41:00,51.1,46.7,29.42,WSW,246,0.0,0.0,85,0.00,,,0.00,0,WeatherCatV1.15B25,2013-06-16 04:41:00,
2013-06-16 00:46:00,50.9,46.2,29.42,WSW,246,0.0,1.0,84,0.00,,,0.00,0,WeatherCatV1.15B25,2013-06-16 04:46:00,
2013-06-16 00:51:00,50.8,46.5,29.41,WSW,246,0.0,0.0,85,0.00,,,0.00,0,WeatherCatV1.15B25,2013-06-16 04:51:00,
2013-06-16 00:56:00,50.5,46.2,29.42,WSW,246,0.0,0.0,85,0.00,,,0.00,0,WeatherCatV1.15B25,2013-06-16 04:56:00,
2013-06-16 01:01:00,50.3,46.3,29.41,WSW,246,0.0,0.0,86,0.00,,,0.00,0,WeatherCatV1.15B25,2013-06-16 05:01:00,
2013-06-16 01:06:00,50.2,46.2,29.41,WSW,246,0.0,0.0,86,0.00,,,0.00,0,WeatherCatV1.15B25,2013-06-16 05:06:00,
2013-06-16 01:11:00,50.1,46.7,29.41,WSW,246,0.0,0.0,88,0.00,,,0.00,0,WeatherCatV1.15B25,2013-06-16 05:11:00,
2013-06-16 01:16:00,50.0,46.6,29.41,WSW,246,0.0,1.0,88,0.00,,,0.00,0,WeatherCatV1.15B25,2013-06-16 05:16:00,
2013-06-16 01:21:00,49.9,46.8,29.41,WSW,246,0.0,0.0,89,0.00,,,0.00,0,WeatherCatV1.15B25,2013-06-16 05:21:00,
2013-06-16 01:26:00,49.9,46.8,29.41,WSW,246,0.0,0.0,89,0.00,,,0.00,0,WeatherCatV1.15B25,2013-06-16 05:26:00,
2013-06-16 01:31:00,49.8,46.7,29.41,WSW,246,0.0,0.0,89,0.00,,,0.00,0,WeatherCatV1.15B25,2013-06-16 05:31:00,
2013-06-16 01:36:00,49.7,46.6,29.41,WSW,246,0.0,0.0,89,0.00,,,0.00,0,WeatherCatV1.15B25,2013-06-16 05:36:00,
2013-06-16 01:41:00,49.6,46.5,29.41,WSW,244,0.0,0.0,89,0.00,,,0.00,0,WeatherCatV1.15B25,2013-06-16 05:41:00,
2013-06-16 01:46:00,49.6,46.8,29.41,WSW,244,0.0,2.0,90,0.00,,,0.00,0,WeatherCatV1.15B25,2013-06-16 05:46:00,
2013-06-16 01:51:00,49.5,46.7,29.41,WSW,244,0.0,0.0,90,0.00,,,0.00,0,WeatherCatV1.15B25,2013-06-16 05:51:00,
2013-06-16 01:56:00,49.4,46.6,29.42,WSW,244,0.0,1.0,90,0.00,,,0.00,0,WeatherCatV1.15B25,2013-06-16 05:56:00,
2013-06-16 02:01:00,49.3,46.5,29.41,WSW,244,0.0,0.0,90,0.00,,,0.00,0,WeatherCatV1.15B25,2013-06-16 06:01:00,
2013-06-16 02:06:00,49.2,46.4,29.41,WSW,244,1.0,1.0,90,0.00,,,0.00,0,WeatherCatV1.15B25,2013-06-16 06:06:00,
2013-06-16 02:11:00,49.2,46.7,29.42,WNW,292,0.0,0.0,91,0.00,,,0.00,0,WeatherCatV1.15B25,2013-06-16 06:11:00,
2013-06-16 02:16:00,49.2,46.4,29.41,WNW,292,0.0,2.0,90,0.00,,,0.00,0,WeatherCatV1.15B25,2013-06-16 06:16:00,
2013-06-16 02:21:00,49.2,46.4,29.42,WSW,244,0.0,0.0,90,0.00,,,0.00,0,WeatherCatV1.15B25,2013-06-16 06:21:00,
2013-06-16 02:26:00,49.2,46.4,29.42,WSW,244,0.0,0.0,90,0.00,,,0.00,0,WeatherCatV1.15B25,2013-06-16 06:26:00,
2013-06-16 02:31:00,49.2,46.1,29.42,WSW,244,0.0,1.0,89,0.00,,,0.00,0,WeatherCatV1.15B25,2013-06-16 06:31:00,
2013-06-16 02:36:00,49.1,46.0,29.42,WSW,244,0.0,1.0,89,0.00,,,0.00,0,WeatherCatV1.15B25,2013-06-16 06:36:00,
2013-06-16 02:41:00,49.1,46.0,29.42,WSW,244,0.0,0.0,89,0.00,,,0.00,0,WeatherCatV1.15B25,2013-06-16 06:41:00,
2013-06-16 02:46:00,49.0,45.9,29.42,WSW,244,0.0,0.0,89,0.00,,,0.00,0,WeatherCatV1.15B25,2013-06-16 06:46:00,
2013-06-16 02:51:00,49.0,45.9,29.41,WSW,244,0.0,0.0,89,0.00,,,0.00,0,WeatherCatV1.15B25,2013-06-16 06:51:00,
2013-06-16 02:56:00,48.9,46.1,29.41,WSW,244,0.0,0.0,90,0.00,,,0.00,0,WeatherCatV1.15B25,2013-06-16 06:56:00,
2013-06-16 03:01:00,48.9,46.1,29.41,West,266,0.0,2.0,90,0.00,,,0.00,0,WeatherCatV1.15B25,2013-06-16 07:01:00,
2013-06-16 03:06:00,48.9,46.1,29.41,West,266,1.0,1.0,90,0.00,,,0.00,0,WeatherCatV1.15B25,2013-06-16 07:06:00,
2013-06-16 03:11:00,48.9,46.1,29.41,WSW,254,0.0,0.0,90,0.00,,,0.00,0,WeatherCatV1.15B25,2013-06-16 07:11:00,
2013-06-16 03:16:00,48.9,46.1,29.41,WSW,254,0.0,1.0,90,0.00,,,0.00,0,WeatherCatV1.15B25,2013-06-16 07:16:00,
2013-06-16 03:21:00,48.9,46.1,29.41,WSW,254,0.0,0.0,90,0.00,,,0.00,0,WeatherCatV1.15B25,2013-06-16 07:21:00,
2013-06-16 03:26:00,49.0,46.5,29.41,WSW,254,0.0,0.0,91,0.00,,,0.00,0,WeatherCatV1.15B25,2013-06-16 07:26:00,
2013-06-16 03:31:00,49.0,46.5,29.41,West,267,0.0,0.0,91,0.00,,,0.00,0,WeatherCatV1.15B25,2013-06-16 07:31:00,
2013-06-16 03:36:00,49.1,46.9,29.41,West,267,0.0,2.0,92,0.00,,,0.00,0,WeatherCatV1.15B25,2013-06-16 07:36:00,
2013-06-16 03:41:00,49.2,46.7,29.41,West,267,0.0,0.0,91,0.00,,,0.00,0,WeatherCatV1.15B25,2013-06-16 07:41:00,
2013-06-16 03:46:00,49.1,46.6,29.41,WSW,246,0.0,0.0,91,0.00,,,0.00,0,WeatherCatV1.15B25,2013-06-16 07:46:00,
2013-06-16 03:51:00,49.1,46.6,29.41,WSW,246,0.0,0.0,91,0.00,,,0.00,0,WeatherCatV1.15B25,2013-06-16 07:51:00,
2013-06-16 03:56:00,49.1,46.6,29.40,WSW,246,0.0,0.0,91,0.00,,,0.00,0,WeatherCatV1.15B25,2013-06-16 07:56:00,
2013-06-16 04:01:00,49.0,46.5,29.41,WSW,246,0.0,0.0,91,0.00,,,0.00,0,WeatherCatV1.15B25,2013-06-16 08:01:00,
2013-06-16 04:06:00,49.0,46.5,29.41,WSW,246,0.0,1.0,91,0.00,,,0.00,0,WeatherCatV1.15B25,2013-06-16 08:06:00,
2013-06-16 04:11:00,49.0,46.5,29.41,WSW,246,0.0,0.0,91,0.00,,,0.00,0,WeatherCatV1.15B25,2013-06-16 08:11:00,
2013-06-16 04:16:00,48.9,46.1,29.41,WSW,246,0.0,0.0,90,0.00,,,0.00,0,WeatherCatV1.15B25,2013-06-16 08:16:00,
2013-06-16 04:21:00,48.8,46.3,29.40,WSW,246,0.0,0.0,91,0.00,,,0.00,0,WeatherCatV1.15B25,2013-06-16 08:21:00,
2013-06-16 04:26:00,48.8,46.3,29.41,WSW,246,0.0,0.0,91,0.00,,,0.00,0,WeatherCatV1.15B25,2013-06-16 08:26:00,
2013-06-16 04:31:00,48.7,46.2,29.41,WSW,246,0.0,0.0,91,0.00,,,0.00,0,WeatherCatV1.15B25,2013-06-16 08:31:00,
2013-06-16 04:36:00,48.7,46.5,29.41,WSW,246,0.0,0.0,92,0.00,,,0.00,0,WeatherCatV1.15B25,2013-06-16 08:36:00,
2013-06-16 04:41:00,48.7,46.8,29.41,WSW,246,0.0,0.0,93,0.00,,,0.00,0,WeatherCatV1.15B25,2013-06-16 08:41:00,
2013-06-16 04:46:00,48.7,46.8,29.41,WSW,246,0.0,1.0,93,0.00,,,0.00,0,WeatherCatV1.15B25,2013-06-16 08:46:00,
2013-06-16 04:51:00,48.7,46.8,29.41,NNE,13,0.0,0.0,93,0.00,,,0.00,0,WeatherCatV1.15B25,2013-06-16 08:51:00,
2013-06-16 04:56:00,48.6,46.7,29.41,NNE,13,0.0,0.0,93,0.00,,,0.00,0,WeatherCatV1.15B25,2013-06-16 08:56:00,
2013-06-16 05:01:00,48.5,46.6,29.41,NNE,13,0.0,0.0,93,0.00,,,0.00,0,WeatherCatV1.15B25,2013-06-16 09:01:00,
2013-06-16 05:06:00,48.5,46.6,29.41,NNE,13,0.0,0.0,93,0.00,,,0.00,0,WeatherCatV1.15B25,2013-06-16 09:06:00,
2013-06-16 05:11:00,48.4,46.5,29.41,NNE,13,0.0,1.0,93,0.00,,,0.00,5,WeatherCatV1.15B25,2013-06-16 09:11:00,
2013-06-16 05:16:00,48.4,46.8,29.41,NNE,13,0.0,0.0,94,0.00,,,0.00,7,WeatherCatV1.15B25,2013-06-16 09:16:00,
2013-06-16 05:21:00,48.4,46.8,29.42,NNE,13,0.0,1.0,94,0.00,,,0.00,9,WeatherCatV1.15B25,2013-06-16 09:21:00,
2013-06-16 05:26:00,48.4,46.8,29.42,NNE,13,0.0,0.0,94,0.00,,,0.00,11,WeatherCatV1.15B25,2013-06-16 09:26:00,
2013-06-16 05:31:00,48.5,46.9,29.41,NNE,13,1.0,1.0,94,0.00,,,0.00,12,WeatherCatV1.15B25,2013-06-16 09:31:00,
2013-06-16 05:36:00,48.5,47.1,29.41,NNE,13,0.0,1.0,95,0.00,,,0.00,14,WeatherCatV1.15B25,2013-06-16 09:36:00,
2013-06-16 05:41:00,48.6,47.2,29.41,NNE,13,0.0,0.0,95,0.00,,,0.00,18,WeatherCatV1.15B25,2013-06-16 09:41:00,
2013-06-16 05:46:00,48.7,47.3,29.41,NNE,13,0.0,0.0,95,0.00,,,0.00,23,WeatherCatV1.15B25,2013-06-16 09:46:00,
2013-06-16 05:51:00,48.7,47.3,29.41,NNE,13,0.0,0.0,95,0.00,,,0.00,19,WeatherCatV1.15B25,2013-06-16 09:51:00,
2013-06-16 05:53:00,48.8,47.4,29.42,NNE,13,0.0,0.0,95,0.00,,,0.00,21,WeatherCatV1.15B25,2013-06-16 09:53:00,
2013-06-16 05:58:00,48.8,47.2,29.42,NNE,13,0.0,0.0,94,0.00,,,0.00,19,WeatherCatV1.15B25,2013-06-16 09:58:00,
2013-06-16 06:03:00,48.8,46.9,29.42,NNE,13,0.0,0.0,93,0.00,,,0.00,16,WeatherCatV1.15B25,2013-06-16 10:03:00,
2013-06-16 06:08:00,48.9,47.2,29.42,NNE,13,0.0,0.0,94,0.00,,,0.00,18,WeatherCatV1.15B25,2013-06-16 10:08:00,
2013-06-16 06:13:00,49.1,47.7,29.42,NNE,13,0.0,0.0,95,0.00,,,0.00,25,WeatherCatV1.15B25,2013-06-16 10:13:00,
2013-06-16 06:18:00,49.2,47.5,29.42,NNE,13,0.0,0.0,94,0.00,,,0.00,40,WeatherCatV1.15B25,2013-06-16 10:18:00,
2013-06-16 06:23:00,49.2,47.5,29.42,NNE,13,0.0,0.0,94,0.00,,,0.00,35,WeatherCatV1.15B25,2013-06-16 10:23:00,
2013-06-16 06:28:00,49.3,47.6,29.42,NNE,13,0.0,0.0,94,0.00,,,0.00,32,WeatherCatV1.15B25,2013-06-16 10:28:00,
2013-06-16 06:33:00,49.4,47.7,29.42,NNE,13,0.0,0.0,94,0.00,,,0.00,32,WeatherCatV1.15B25,2013-06-16 10:33:00,
2013-06-16 06:38:00,49.5,47.8,29.42,NNE,13,0.0,0.0,94,0.00,,,0.00,40,WeatherCatV1.15B25,2013-06-16 10:38:00,
2013-06-16 06:43:00,49.6,47.9,29.42,NNE,13,0.0,0.0,94,0.00,,,0.00,42,WeatherCatV1.15B25,2013-06-16 10:43:00,
2013-06-16 06:48:00,49.8,48.4,29.41,NNE,13,0.0,0.0,95,0.00,,,0.00,44,WeatherCatV1.15B25,2013-06-16 10:48:00,
2013-06-16 06:53:00,50.1,48.7,29.42,NNE,13,0.0,0.0,95,0.00,,,0.00,44,WeatherCatV1.15B25,2013-06-16 10:53:00,
2013-06-16 06:58:00,50.4,49.3,29.42,NNE,13,0.0,0.0,96,0.00,,,0.00,47,WeatherCatV1.15B25,2013-06-16 10:58:00,
2013-06-16 07:03:00,50.6,49.5,29.42,NNE,13,0.0,0.0,96,0.00,,,0.00,49,WeatherCatV1.15B25,2013-06-16 11:03:00,
2013-06-16 07:08:00,51.0,49.9,29.42,NNE,13,0.0,1.0,96,0.00,,,0.00,54,WeatherCatV1.15B25,2013-06-16 11:08:00,
2013-06-16 07:13:00,51.4,50.3,29.42,NNE,13,0.0,1.0,96,0.00,,,0.00,56,WeatherCatV1.15B25,2013-06-16 11:13:00,
2013-06-16 07:18:00,51.7,50.6,29.42,NNE,13,0.0,1.0,96,0.00,,,0.00,54,WeatherCatV1.15B25,2013-06-16 11:18:00,
2013-06-16 07:23:00,52.1,50.7,29.41,NNE,13,0.0,0.0,95,0.00,,,0.00,53,WeatherCatV1.15B25,2013-06-16 11:23:00,
2013-06-16 07:28:00,52.4,51.0,29.41,NNE,13,0.0,1.0,95,0.00,,,0.00,60,WeatherCatV1.15B25,2013-06-16 11:28:00,
2013-06-16 07:33:00,52.8,51.1,29.41,NNE,13,0.0,0.0,94,0.00,,,0.00,60,WeatherCatV1.15B25,2013-06-16 11:33:00,
2013-06-16 07:38:00,53.2,50.9,29.41,NNE,13,0.0,0.0,92,0.00,,,0.00,63,WeatherCatV1.15B25,2013-06-16 11:38:00,
2013-06-16 07:43:00,53.6,51.3,29.42,NNE,13,0.0,1.0,92,0.00,,,0.00,65,WeatherCatV1.15B25,2013-06-16 11:43:00,
2013-06-16 07:48:00,54.0,51.1,29.42,NNE,13,0.0,1.0,90,0.00,,,0.00,69,WeatherCatV1.15B25,2013-06-16 11:48:00,
2013-06-16 07:53:00,54.4,51.2,29.42,NNE,13,0.0,0.0,89,0.00,,,0.00,67,WeatherCatV1.15B25,2013-06-16 11:53:00,
2013-06-16 07:58:00,54.8,51.3,29.42,NNE,13,0.0,0.0,88,0.00,,,0.00,79,WeatherCatV1.15B25,2013-06-16 11:58:00,
2013-06-16 08:03:00,55.1,51.6,29.42,NNE,13,0.0,0.0,88,0.00,,,0.00,70,WeatherCatV1.15B25,2013-06-16 12:03:00,
2013-06-16 08:08:00,55.5,51.7,29.42,NNE,13,0.0,0.0,87,0.00,,,0.00,72,WeatherCatV1.15B25,2013-06-16 12:08:00,
2013-06-16 08:13:00,55.9,52.1,29.42,NNE,13,0.0,1.0,87,0.00,,,0.00,72,WeatherCatV1.15B25,2013-06-16 12:13:00,
2013-06-16 08:18:00,56.3,51.8,29.42,NNE,13,0.0,0.0,85,0.00,,,0.00,77,WeatherCatV1.15B25,2013-06-16 12:18:00,
2013-06-16 08:23:00,56.6,51.2,29.42,NNE,13,0.0,0.0,82,0.00,,,0.00,74,WeatherCatV1.15B25,2013-06-16 12:23:00,
2013-06-16 08:28:00,56.9,51.5,29.41,NNE,13,0.0,0.0,82,0.00,,,0.00,77,WeatherCatV1.15B25,2013-06-16 12:28:00,
2013-06-16 08:33:00,57.2,51.4,29.42,NNE,13,0.0,0.0,81,0.00,,,0.00,79,WeatherCatV1.15B25,2013-06-16 12:33:00,
2013-06-16 08:38:00,57.5,51.7,29.41,NNE,13,0.0,0.0,81,0.00,,,0.00,69,WeatherCatV1.15B25,2013-06-16 12:38:00,
2013-06-16 08:43:00,57.9,52.8,29.41,NNE,13,0.0,0.0,83,0.00,,,0.00,47,WeatherCatV1.15B25,2013-06-16 12:43:00,
2013-06-16 08:48:00,58.2,52.1,29.41,NNE,13,0.0,0.0,80,0.00,,,0.00,67,WeatherCatV1.15B25,2013-06-16 12:48:00,
2013-06-16 08:53:00,58.4,52.3,29.41,NNE,13,0.0,0.0,80,0.00,,,0.00,91,WeatherCatV1.15B25,2013-06-16 12:53:00,
2013-06-16 08:58:00,58.7,51.9,29.41,North,9,0.0,1.0,78,0.00,,,0.00,84,WeatherCatV1.15B25,2013-06-16 12:58:00,
2013-06-16 09:03:00,59.0,53.2,29.40,North,9,0.0,0.0,81,0.00,,,0.00,77,WeatherCatV1.15B25,2013-06-16 13:03:00,
2013-06-16 09:08:00,59.3,54.1,29.40,North,9,0.0,0.0,83,0.00,,,0.00,86,WeatherCatV1.15B25,2013-06-16 13:08:00,
2013-06-16 09:13:00,59.6,53.4,29.40,North,9,0.0,0.0,80,0.00,,,0.00,93,WeatherCatV1.15B25,2013-06-16 13:13:00,
2013-06-16 09:18:00,59.9,53.0,29.40,North,9,0.0,0.0,78,0.00,,,0.00,93,WeatherCatV1.15B25,2013-06-16 13:18:00,
2013-06-16 09:23:00,60.3,53.4,29.40,North,9,0.0,0.0,78,0.00,,,0.00,76,WeatherCatV1.15B25,2013-06-16 13:23:00,
2013-06-16 09:28:00,60.7,53.1,29.40,North,9,0.0,0.0,76,0.00,,,0.00,100,WeatherCatV1.15B25,2013-06-16 13:28:00,
2013-06-16 09:33:00,61.1,53.1,29.39,North,9,0.0,1.0,75,0.00,,,0.00,114,WeatherCatV1.15B25,2013-06-16 13:33:00,
2013-06-16 09:38:00,61.4,53.4,29.39,North,9,0.0,0.0,75,0.00,,,0.00,104,WeatherCatV1.15B25,2013-06-16 13:38:00,
2013-06-16 09:43:00,61.8,54.5,29.39,North,9,0.0,0.0,77,0.00,,,0.00,114,WeatherCatV1.15B25,2013-06-16 13:43:00,
2013-06-16 09:48:00,62.2,55.3,29.39,North,9,0.0,0.0,78,0.00,,,0.00,120,WeatherCatV1.15B25,2013-06-16 13:48:00,
2013-06-16 09:53:00,62.6,54.9,29.39,North,9,0.0,1.0,76,0.00,,,0.00,134,WeatherCatV1.15B25,2013-06-16 13:53:00,
2013-06-16 09:58:00,62.9,55.6,29.39,North,9,0.0,0.0,77,0.00,,,0.00,137,WeatherCatV1.15B25,2013-06-16 13:58:00,
2013-06-16 10:03:00,63.3,55.6,29.39,North,9,0.0,0.0,76,0.00,,,0.00,155,WeatherCatV1.15B25,2013-06-16 14:03:00,
2013-06-16 10:08:00,63.7,56.3,29.38,North,9,0.0,0.0,77,0.00,,,0.00,146,WeatherCatV1.15B25,2013-06-16 14:08:00,
2013-06-16 10:13:00,64.1,56.4,29.38,North,9,0.0,0.0,76,0.00,,,0.00,134,WeatherCatV1.15B25,2013-06-16 14:13:00,
2013-06-16 10:18:00,64.5,56.0,29.37,North,9,0.0,0.0,74,0.00,,,0.00,192,WeatherCatV1.15B25,2013-06-16 14:18:00,
2013-06-16 10:23:00,64.9,56.4,29.37,North,9,0.0,0.0,74,0.00,,,0.00,146,WeatherCatV1.15B25,2013-06-16 14:23:00,
2013-06-16 10:28:00,65.3,57.2,29.38,North,9,0.0,0.0,75,0.00,,,0.00,130,WeatherCatV1.15B25,2013-06-16 14:28:00,
2013-06-16 10:33:00,65.8,57.6,29.37,North,9,0.0,0.0,75,0.00,,,0.00,144,WeatherCatV1.15B25,2013-06-16 14:33:00,
2013-06-16 10:38:00,66.1,57.6,29.36,North,9,0.0,0.0,74,0.00,,,0.00,148,WeatherCatV1.15B25,2013-06-16 14:38:00,
2013-06-16 10:43:00,66.5,57.2,29.36,North,9,0.0,0.0,72,0.00,,,0.00,163,WeatherCatV1.15B25,2013-06-16 14:43:00,
2013-06-16 10:48:00,66.8,55.5,29.36,North,9,0.0,0.0,67,0.00,,,0.00,128,WeatherCatV1.15B25,2013-06-16 14:48:00,
2013-06-16 10:53:00,67.1,56.2,29.36,North,9,0.0,0.0,68,0.00,,,0.00,135,WeatherCatV1.15B25,2013-06-16 14:53:00,
2013-06-16 10:58:00,67.5,56.6,29.36,North,9,0.0,0.0,68,0.00,,,0.00,153,WeatherCatV1.15B25,2013-06-16 14:58:00,
2013-06-16 11:03:00,67.8,56.8,29.36,North,9,0.0,0.0,68,0.00,,,0.00,146,WeatherCatV1.15B25,2013-06-16 15:03:00,
2013-06-16 11:08:00,68.0,57.0,29.35,North,9,0.0,0.0,68,0.00,,,0.00,111,WeatherCatV1.15B25,2013-06-16 15:08:00,
2013-06-16 11:13:00,68.3,57.7,29.35,North,9,0.0,0.0,69,0.00,,,0.00,93,WeatherCatV1.15B25,2013-06-16 15:13:00,
2013-06-16 11:18:00,68.5,57.1,29.35,North,9,0.0,0.0,67,0.00,,,0.00,116,WeatherCatV1.15B25,2013-06-16 15:18:00,
2013-06-16 11:23:00,68.7,58.5,29.35,North,9,0.0,0.0,70,0.00,,,0.00,142,WeatherCatV1.15B25,2013-06-16 15:23:00,
2013-06-16 11:28:00,68.8,56.5,29.35,North,9,0.0,1.0,65,0.00,,,0.00,128,WeatherCatV1.15B25,2013-06-16 15:28:00,
2013-06-16 11:33:00,69.0,55.4,29.35,North,9,0.0,1.0,62,0.00,,,0.00,156,WeatherCatV1.15B25,2013-06-16 15:33:00,
2013-06-16 11:38:00,69.2,56.5,29.35,NNW,344,0.0,1.0,64,0.00,,,0.00,128,WeatherCatV1.15B25,2013-06-16 15:38:00,
2013-06-16 11:43:00,69.4,56.7,29.34,NNW,344,0.0,0.0,64,0.00,,,0.00,134,WeatherCatV1.15B25,2013-06-16 15:43:00,
2013-06-16 11:48:00,69.6,56.9,29.34,NNW,344,0.0,1.0,64,0.00,,,0.00,128,WeatherCatV1.15B25,2013-06-16 15:48:00,
2013-06-16 11:53:00,69.7,56.1,29.34,NNW,344,0.0,1.0,62,0.00,,,0.00,105,WeatherCatV1.15B25,2013-06-16 15:53:00,
2013-06-16 11:58:00,69.9,56.7,29.33,NNW,344,0.0,0.0,63,0.00,,,0.00,162,WeatherCatV1.15B25,2013-06-16 15:58:00,
2013-06-16 12:03:00,70.1,55.6,29.33,NNW,344,0.0,0.0,60,0.00,,,0.00,114,WeatherCatV1.15B25,2013-06-16 16:03:00,
2013-06-16 12:08:00,70.2,56.6,29.33,NNW,344,0.0,0.0,62,0.00,,,0.00,118,WeatherCatV1.15B25,2013-06-16 16:08:00,
2013-06-16 12:13:00,70.4,57.2,29.33,NNW,344,0.0,0.0,63,0.00,,,0.00,116,WeatherCatV1.15B25,2013-06-16 16:13:00,
2013-06-16 12:18:00,70.6,57.4,29.33,NNW,344,0.0,0.0,63,0.00,,,0.00,104,WeatherCatV1.15B25,2013-06-16 16:18:00,
2013-06-16 12:23:00,70.7,58.3,29.33,NNW,344,0.0,1.0,65,0.00,,,0.00,109,WeatherCatV1.15B25,2013-06-16 16:23:00,
2013-06-16 12:28:00,70.8,56.2,29.32,NNW,344,0.0,0.0,60,0.00,,,0.00,153,WeatherCatV1.15B25,2013-06-16 16:28:00,
2013-06-16 12:33:00,70.9,56.8,29.32,NE,42,1.0,1.0,61,0.00,,,0.00,149,WeatherCatV1.15B25,2013-06-16 16:33:00,
2013-06-16 12:38:00,70.9,55.4,29.32,SSE,153,0.0,0.0,58,0.00,,,0.00,181,WeatherCatV1.15B25,2013-06-16 16:38:00,
2013-06-16 12:43:00,71.0,56.4,29.31,SE,133,0.0,1.0,60,0.00,,,0.00,174,WeatherCatV1.15B25,2013-06-16 16:43:00,
2013-06-16 12:48:00,71.2,56.1,29.31,SSE,148,0.0,1.0,59,0.00,,,0.00,163,WeatherCatV1.15B25,2013-06-16 16:48:00,
2013-06-16 12:53:00,71.3,54.3,29.30,SW,234,0.0,2.0,55,0.00,,,0.00,148,WeatherCatV1.15B25,2013-06-16 16:53:00,
2013-06-16 12:58:00,71.6,53.0,29.31,South,183,0.0,1.0,52,0.00,,,0.00,153,WeatherCatV1.15B25,2013-06-16 16:58:00,
2013-06-16 13:03:00,71.7,54.2,29.30,South,183,0.0,0.0,54,0.00,,,0.00,144,WeatherCatV1.15B25,2013-06-16 17:03:00,
2013-06-16 13:08:00,71.9,53.8,29.30,South,184,0.0,0.0,53,0.00,,,0.00,142,WeatherCatV1.15B25,2013-06-16 17:08:00,
2013-06-16 13:13:00,72.0,55.9,29.30,South,184,1.0,1.0,57,0.00,,,0.00,132,WeatherCatV1.15B25,2013-06-16 17:13:00,
2013-06-16 13:18:00,72.1,54.5,29.30,WSW,249,0.0,3.0,54,0.00,,,0.00,141,WeatherCatV1.15B25,2013-06-16 17:18:00,
2013-06-16 13:23:00,72.2,55.1,29.30,WSW,248,0.0,1.0,55,0.00,,,0.00,169,WeatherCatV1.15B25,2013-06-16 17:23:00,
2013-06-16 13:28:00,72.4,56.3,29.29,SSE,156,1.0,1.0,57,0.00,,,0.00,183,WeatherCatV1.15B25,2013-06-16 17:28:00,
2013-06-16 13:33:00,72.6,56.0,29.29,SE,144,0.0,0.0,56,0.00,,,0.00,169,WeatherCatV1.15B25,2013-06-16 17:33:00,
2013-06-16 13:38:00,72.8,54.1,29.28,WSW,241,0.0,2.0,52,0.00,,,0.00,232,WeatherCatV1.15B25,2013-06-16 17:38:00,
2013-06-16 13:43:00,73.2,55.5,29.28,SSE,159,0.0,1.0,54,0.00,,,0.00,387,WeatherCatV1.15B25,2013-06-16 17:43:00,
2013-06-16 13:48:00,73.7,55.0,29.28,SSW,193,0.0,1.0,52,0.00,,,0.00,188,WeatherCatV1.15B25,2013-06-16 17:48:00,
2013-06-16 13:53:00,74.1,53.7,29.28,SSE,147,0.0,1.0,49,0.00,,,0.00,149,WeatherCatV1.15B25,2013-06-16 17:53:00,
2013-06-16 13:58:00,74.4,54.5,29.27,SE,134,0.0,1.0,50,0.00,,,0.00,134,WeatherCatV1.15B25,2013-06-16 17:58:00,
2013-06-16 14:03:00,74.4,54.0,29.27,SE,144,0.0,2.0,49,0.00,,,0.00,116,WeatherCatV1.15B25,2013-06-16 18:03:00,
2013-06-16 14:08:00,74.2,53.8,29.27,South,169,0.0,1.0,49,0.00,,,0.00,118,WeatherCatV1.15B25,2013-06-16 18:08:00,
2013-06-16 14:13:00,74.1,55.3,29.27,South,169,0.0,1.0,52,0.00,,,0.00,72,WeatherCatV1.15B25,2013-06-16 18:13:00,
2013-06-16 14:18:00,74.0,55.8,29.27,SSE,167,0.0,2.0,53,0.00,,,0.00,84,WeatherCatV1.15B25,2013-06-16 18:18:00,
2013-06-16 14:23:00,73.7,56.5,29.27,SSE,167,0.0,0.0,55,0.00,,,0.00,100,WeatherCatV1.15B25,2013-06-16 18:23:00,
2013-06-16 14:28:00,73.5,54.8,29.26,SSE,167,0.0,0.0,52,0.00,,,0.00,116,WeatherCatV1.15B25,2013-06-16 18:28:00,
2013-06-16 14:33:00,73.3,56.6,29.26,SSE,167,0.0,1.0,56,0.00,,,0.00,113,WeatherCatV1.15B25,2013-06-16 18:33:00,
2013-06-16 14:38:00,73.1,56.5,29.26,SE,126,0.0,1.0,56,0.00,,,0.00,288,WeatherCatV1.15B25,2013-06-16 18:38:00,
2013-06-16 14:43:00,72.9,53.7,29.26,South,185,0.0,1.0,51,0.00,,,0.00,127,WeatherCatV1.15B25,2013-06-16 18:43:00,
2013-06-16 14:48:00,73.0,55.4,29.25,SE,137,2.0,3.0,54,0.00,,,0.00,200,WeatherCatV1.15B25,2013-06-16 18:48:00,
2013-06-16 14:53:00,73.1,54.9,29.25,SSE,165,1.0,1.0,53,0.00,,,0.00,105,WeatherCatV1.15B25,2013-06-16 18:53:00,
2013-06-16 14:58:00,73.2,55.0,29.25,SSE,163,0.0,1.0,53,0.00,,,0.00,91,WeatherCatV1.15B25,2013-06-16 18:58:00,
2013-06-16 15:03:00,73.1,55.4,29.25,SSE,162,0.0,0.0,54,0.00,,,0.00,79,WeatherCatV1.15B25,2013-06-16 19:03:00,
2013-06-16 15:08:00,73.1,54.9,29.25,SSE,162,0.0,1.0,53,0.00,,,0.00,70,WeatherCatV1.15B25,2013-06-16 19:08:00,
2013-06-16 15:13:00,72.9,55.8,29.25,SSE,161,0.0,1.0,55,0.00,,,0.00,67,WeatherCatV1.15B25,2013-06-16 19:13:00,
2013-06-16 15:18:00,72.8,57.1,29.25,SSE,161,1.0,1.0,58,0.00,,,0.00,81,WeatherCatV1.15B25,2013-06-16 19:18:00,
2013-06-16 15:23:00,72.6,57.0,29.25,SSE,161,0.0,1.0,58,0.00,,,0.00,54,WeatherCatV1.15B25,2013-06-16 19:23:00,
2013-06-16 15:28:00,72.4,57.2,29.25,SSE,163,0.0,0.0,59,0.00,,,0.00,37,WeatherCatV1.15B25,2013-06-16 19:28:00,
2013-06-16 15:33:00,72.2,58.0,29.25,SSE,163,0.0,0.0,61,0.00,,,0.00,25,WeatherCatV1.15B25,2013-06-16 19:33:00,
2013-06-16 15:38:00,72.0,58.7,29.25,SSE,163,0.0,1.0,63,0.00,,,0.00,23,WeatherCatV1.15B25,2013-06-16 19:38:00,
2013-06-16 15:43:00,71.8,58.5,29.25,SSE,163,0.0,0.0,63,0.00,,,0.00,18,WeatherCatV1.15B25,2013-06-16 19:43:00,
2013-06-16 15:48:00,71.5,58.2,29.25,SSE,163,0.0,0.0,63,0.00,,,0.00,18,WeatherCatV1.15B25,2013-06-16 19:48:00,
2013-06-16 15:53:00,71.1,57.4,29.25,SSE,163,0.0,0.0,62,0.00,,,0.00,14,WeatherCatV1.15B25,2013-06-16 19:53:00,
2013-06-16 15:58:00,70.8,58.0,29.25,SSE,163,0.0,0.0,64,0.00,,,0.00,12,WeatherCatV1.15B25,2013-06-16 19:58:00,
2013-06-16 16:03:00,70.4,58.9,29.25,SSE,163,0.0,0.0,67,0.00,,,0.00,11,WeatherCatV1.15B25,2013-06-16 20:03:00,
2013-06-16 16:08:00,70.1,59.4,29.25,SSE,163,0.0,0.0,69,0.00,,,0.00,12,WeatherCatV1.15B25,2013-06-16 20:08:00,
2013-06-16 16:13:00,69.7,59.1,29.25,SSE,163,0.0,1.0,69,0.00,,,0.00,11,WeatherCatV1.15B25,2013-06-16 20:13:00,
2013-06-16 16:18:00,69.3,60.3,29.25,SSE,163,0.0,0.0,73,0.00,,,0.00,14,WeatherCatV1.15B25,2013-06-16 20:18:00,
2013-06-16 16:23:00,68.8,59.8,29.25,SSE,163,0.0,0.0,73,0.00,,,0.00,14,WeatherCatV1.15B25,2013-06-16 20:23:00,
2013-06-16 16:28:00,68.5,60.3,29.25,SSE,163,0.0,0.0,75,0.00,,,0.00,12,WeatherCatV1.15B25,2013-06-16 20:28:00,
2013-06-16 16:33:00,68.0,60.5,29.25,SSE,163,0.0,1.0,77,0.00,,,0.00,12,WeatherCatV1.15B25,2013-06-16 20:33:00,
2013-06-16 16:38:00,67.4,59.6,29.25,SSE,163,0.0,1.0,76,0.00,,,0.00,11,WeatherCatV1.15B25,2013-06-16 20:38:00,
2013-06-16 16:43:00,66.9,60.5,29.25,SSE,163,0.0,0.0,80,0.00,,,0.00,11,WeatherCatV1.15B25,2013-06-16 20:43:00,
2013-06-16 16:48:00,66.5,60.1,29.25,SSE,163,0.0,1.0,80,0.00,,,0.00,11,WeatherCatV1.15B25,2013-06-16 20:48:00,
2013-06-16 16:53:00,66.1,60.8,29.25,SSE,163,0.0,0.0,83,0.00,,,0.00,11,WeatherCatV1.15B25,2013-06-16 20:53:00,
2013-06-16 16:58:00,65.8,60.5,29.25,SSE,163,0.0,0.0,83,0.00,,,0.00,14,WeatherCatV1.15B25,2013-06-16 20:58:00,
2013-06-16 17:03:00,65.6,60.6,29.25,SSE,163,0.0,0.0,84,0.00,,,0.00,11,WeatherCatV1.15B25,2013-06-16 21:03:00,
2013-06-16 17:08:00,65.4,60.4,29.26,SSE,163,0.0,0.0,84,0.00,,,0.00,11,WeatherCatV1.15B25,2013-06-16 21:08:00,
2013-06-16 17:13:00,65.1,60.5,29.25,SSE,163,0.0,0.0,85,0.00,,,0.00,7,WeatherCatV1.15B25,2013-06-16 21:13:00,
2013-06-16 17:18:00,64.9,60.9,29.26,SSE,163,0.0,1.0,87,0.00,,,0.00,9,WeatherCatV1.15B25,2013-06-16 21:18:00,
2013-06-16 17:23:00,64.7,60.7,29.26,SSE,163,0.0,0.0,87,0.00,,,0.00,21,WeatherCatV1.15B25,2013-06-16 21:23:00,
2013-06-16 17:28:00,64.6,61.0,29.25,SSE,163,0.0,0.0,88,0.00,,,0.00,32,WeatherCatV1.15B25,2013-06-16 21:28:00,
2013-06-16 17:33:00,64.4,60.8,29.26,SSE,163,0.0,0.0,88,0.00,,,0.00,21,WeatherCatV1.15B25,2013-06-16 21:33:00,
2013-06-16 17:38:00,64.1,60.5,29.25,SSE,163,0.0,0.0,88,0.00,,,0.00,12,WeatherCatV1.15B25,2013-06-16 21:38:00,
2013-06-16 17:43:00,64.0,60.7,29.25,SSE,163,0.0,0.0,89,0.00,,,0.00,12,WeatherCatV1.15B25,2013-06-16 21:43:00,
2013-06-16 17:48:00,63.8,60.5,29.25,SSE,163,0.0,0.0,89,0.00,,,0.00,11,WeatherCatV1.15B25,2013-06-16 21:48:00,
2013-06-16 17:53:00,63.6,60.3,29.25,SSE,163,0.0,0.0,89,0.00,,,0.00,0,WeatherCatV1.15B25,2013-06-16 21:53:00,
2013-06-16 17:58:00,63.4,60.4,29.25,SSE,163,0.0,0.0,90,0.00,,,0.00,0,WeatherCatV1.15B25,2013-06-16 21:58:00,
2013-06-16 18:03:00,63.3,60.3,29.25,SSE,163,0.0,1.0,90,0.00,,,0.00,5,WeatherCatV1.15B25,2013-06-16 22:03:00,
2013-06-16 18:08:00,63.1,60.1,29.25,SSE,163,0.0,0.0,90,0.00,,,0.00,5,WeatherCatV1.15B25,2013-06-16 22:08:00,
2013-06-16 18:13:00,63.0,60.3,29.25,SSE,163,0.0,0.0,91,0.00,,,0.00,7,WeatherCatV1.15B25,2013-06-16 22:13:00,
2013-06-16 18:17:00,62.9,60.2,29.25,SSE,163,0.0,0.0,91,0.00,,,0.00,5,WeatherCatV1.15B25,2013-06-16 22:17:00,
2013-06-16 18:22:00,62.7,60.0,29.25,SSE,163,0.0,0.0,91,0.00,,,0.00,9,WeatherCatV1.15B25,2013-06-16 22:22:00,
2013-06-16 18:27:00,62.6,59.9,29.25,SSE,163,0.0,0.0,91,0.00,,,0.00,7,WeatherCatV1.15B25,2013-06-16 22:27:00,
2013-06-16 18:32:00,62.5,59.8,29.25,SSE,163,0.0,0.0,91,0.00,,,0.00,5,WeatherCatV1.15B25,2013-06-16 22:32:00,
2013-06-16 18:37:00,62.5,60.1,29.24,SSE,163,0.0,0.0,92,0.00,,,0.00,5,WeatherCatV1.15B25,2013-06-16 22:37:00,
2013-06-16 18:41:00,62.4,60.0,29.24,SSE,163,0.0,0.0,92,0.00,,,0.00,5,WeatherCatV1.15B25,2013-06-16 22:41:00,
2013-06-16 18:46:00,62.3,59.9,29.24,SSE,163,0.0,0.0,92,0.00,,,0.00,0,WeatherCatV1.15B25,2013-06-16 22:46:00,
2013-06-16 18:51:00,62.3,60.2,29.24,SSE,163,0.0,0.0,93,0.00,,,0.00,0,WeatherCatV1.15B25,2013-06-16 22:51:00,
2013-06-16 18:56:00,62.2,60.1,29.25,SSE,163,0.0,0.0,93,0.00,,,0.01,0,WeatherCatV1.15B25,2013-06-16 22:56:00,
2013-06-16 19:01:00,62.2,60.4,29.25,SSE,163,0.0,0.0,94,0.00,,,0.01,0,WeatherCatV1.15B25,2013-06-16 23:01:00,
2013-06-16 19:06:00,62.1,60.3,29.24,SSE,163,0.0,0.0,94,0.00,,,0.01,0,WeatherCatV1.15B25,2013-06-16 23:06:00,
2013-06-16 19:11:00,62.0,60.2,29.24,SSE,163,0.0,0.0,94,0.00,,,0.01,0,WeatherCatV1.15B25,2013-06-16 23:11:00,
2013-06-16 19:16:00,62.0,60.2,29.24,SSE,163,0.0,0.0,94,0.00,,,0.01,0,WeatherCatV1.15B25,2013-06-16 23:16:00,
2013-06-16 19:21:00,61.9,60.2,29.24,SSE,163,0.0,0.0,94,0.00,,,0.01,0,WeatherCatV1.15B25,2013-06-16 23:21:00,
2013-06-16 19:25:00,61.9,60.2,29.24,SSE,163,0.0,0.0,94,0.00,,,0.01,0,WeatherCatV1.15B25,2013-06-16 23:25:00,
2013-06-16 19:30:00,61.8,60.1,29.24,SSE,163,0.0,0.0,94,0.00,,,0.01,0,WeatherCatV1.15B25,2013-06-16 23:30:00,
2013-06-16 19:35:00,61.8,60.1,29.24,SSE,163,0.0,0.0,94,0.00,,,0.01,0,WeatherCatV1.15B25,2013-06-16 23:35:00,
2013-06-16 19:40:00,61.7,60.0,29.24,SSE,163,0.0,0.0,94,0.00,,,0.01,0,WeatherCatV1.15B25,2013-06-16 23:40:00,
2013-06-16 19:45:00,61.6,60.2,29.24,SSE,163,0.0,0.0,95,0.00,,,0.01,0,WeatherCatV1.15B25,2013-06-16 23:45:00,
2013-06-16 19:50:00,61.6,60.2,29.24,SSE,163,0.0,0.0,95,0.00,,,0.01,0,WeatherCatV1.15B25,2013-06-16 23:50:00,
2013-06-16 19:55:00,61.5,60.1,29.24,SSE,163,0.0,0.0,95,0.00,,,0.01,0,WeatherCatV1.15B25,2013-06-16 23:55:00,
2013-06-16 20:00:00,61.3,59.9,29.24,SSE,163,0.0,0.0,95,0.00,,,0.01,0,WeatherCatV1.15B25,2013-06-17 00:00:00,
2013-06-16 20:05:00,61.3,59.9,29.24,SSE,163,0.0,0.0,95,0.00,,,0.01,0,WeatherCatV1.15B25,2013-06-17 00:05:00,
2013-06-16 20:10:00,61.2,59.8,29.24,SSE,163,0.0,0.0,95,0.00,,,0.02,0,WeatherCatV1.15B25,2013-06-17 00:10:00,
2013-06-16 20:15:00,61.1,59.7,29.24,SSE,163,0.0,0.0,95,0.00,,,0.02,0,WeatherCatV1.15B25,2013-06-17 00:15:00,
2013-06-16 20:20:00,60.9,59.5,29.24,SSE,163,0.0,0.0,95,0.00,,,0.02,0,WeatherCatV1.15B25,2013-06-17 00:20:00,
2013-06-16 20:25:00,60.9,59.5,29.24,SSE,163,0.0,0.0,95,0.00,,,0.02,0,WeatherCatV1.15B25,2013-06-17 00:25:00,
2013-06-16 20:30:00,60.7,59.3,29.24,SSE,163,0.0,0.0,95,0.00,,,0.02,0,WeatherCatV1.15B25,2013-06-17 00:30:00,
2013-06-16 20:35:00,60.7,59.3,29.24,SSE,163,0.0,0.0,95,0.00,,,0.02,0,WeatherCatV1.15B25,2013-06-17 00:35:00,
2013-06-16 20:40:00,60.6,59.2,29.23,SSE,163,0.0,0.0,95,0.00,,,0.02,0,WeatherCatV1.15B25,2013-06-17 00:40:00,
2013-06-16 20:45:00,60.5,59.1,29.23,SSE,163,0.0,0.0,95,0.00,,,0.02,0,WeatherCatV1.15B25,2013-06-17 00:45:00,
2013-06-16 20:50:00,60.4,59.0,29.23,SSE,163,0.0,0.0,95,0.00,,,0.02,0,WeatherCatV1.15B25,2013-06-17 00:50:00,
2013-06-16 20:55:00,60.3,58.9,29.24,SSE,163,0.0,0.0,95,0.00,,,0.02,0,WeatherCatV1.15B25,2013-06-17 00:55:00,
2013-06-16 21:00:00,60.2,58.8,29.24,SSE,163,0.0,0.0,95,0.00,,,0.02,0,WeatherCatV1.15B25,2013-06-17 01:00:00,
2013-06-16 21:05:00,60.1,58.7,29.24,SSE,163,0.0,0.0,95,0.00,,,0.02,0,WeatherCatV1.15B25,2013-06-17 01:05:00,
2013-06-16 21:10:00,60.0,58.6,29.24,SSE,163,0.0,0.0,95,0.00,,,0.02,0,WeatherCatV1.15B25,2013-06-17 01:10:00,
2013-06-16 21:15:00,60.0,58.6,29.25,SSE,163,0.0,0.0,95,0.00,,,0.02,0,WeatherCatV1.15B25,2013-06-17 01:15:00,
2013-06-16 21:20:00,59.9,58.5,29.24,SSE,163,0.0,0.0,95,0.00,,,0.02,0,WeatherCatV1.15B25,2013-06-17 01:20:00,
2013-06-16 21:25:00,59.9,58.8,29.24,SSE,163,0.0,0.0,96,0.00,,,0.02,0,WeatherCatV1.15B25,2013-06-17 01:25:00,
2013-06-16 21:30:00,59.8,58.7,29.24,SSE,163,0.0,0.0,96,0.00,,,0.02,0,WeatherCatV1.15B25,2013-06-17 01:30:00,
2013-06-16 21:35:00,59.8,58.7,29.24,SSE,163,0.0,0.0,96,0.00,,,0.02,0,WeatherCatV1.15B25,2013-06-17 01:35:00,
2013-06-16 21:40:00,59.7,58.6,29.24,SSE,163,0.0,0.0,96,0.00,,,0.02,0,WeatherCatV1.15B25,2013-06-17 01:40:00,
2013-06-16 21:45:00,59.6,58.5,29.24,SSE,163,0.0,0.0,96,0.00,,,0.02,0,WeatherCatV1.15B25,2013-06-17 01:45:00,
2013-06-16 21:50:00,59.5,58.4,29.24,SSE,163,0.0,0.0,96,0.00,,,0.02,0,WeatherCatV1.15B25,2013-06-17 01:50:00,
2013-06-16 21:55:00,59.5,58.4,29.24,SSE,163,0.0,0.0,96,0.00,,,0.02,0,WeatherCatV1.15B25,2013-06-17 01:55:00,
2013-06-16 22:00:00,59.4,58.3,29.24,SSE,163,0.0,0.0,96,0.00,,,0.02,0,WeatherCatV1.15B25,2013-06-17 02:00:00,
2013-06-16 22:05:00,59.3,58.2,29.25,SSE,163,0.0,0.0,96,0.00,,,0.02,0,WeatherCatV1.15B25,2013-06-17 02:05:00,
2013-06-16 22:10:00,59.1,57.7,29.25,SSE,163,0.0,0.0,95,0.00,,,0.02,0,WeatherCatV1.15B25,2013-06-17 02:10:00,
2013-06-16 22:15:00,59.0,57.6,29.24,SSE,163,0.0,0.0,95,0.00,,,0.02,0,WeatherCatV1.15B25,2013-06-17 02:15:00,
2013-06-16 22:20:00,59.0,57.9,29.24,SSE,163,0.0,0.0,96,0.00,,,0.02,0,WeatherCatV1.15B25,2013-06-17 02:20:00,
2013-06-16 22:25:00,59.0,57.9,29.24,SSE,163,0.0,0.0,96,0.00,,,0.02,0,WeatherCatV1.15B25,2013-06-17 02:25:00,
2013-06-16 22:30:00,59.0,57.9,29.25,SSE,163,0.0,0.0,96,0.00,,,0.02,0,WeatherCatV1.15B25,2013-06-17 02:30:00,
2013-06-16 22:35:00,59.0,57.9,29.24,NNE,16,0.0,0.0,96,0.00,,,0.02,0,WeatherCatV1.15B25,2013-06-17 02:35:00,
2013-06-16 22:40:00,59.0,57.9,29.24,NNE,16,0.0,0.0,96,0.00,,,0.02,0,WeatherCatV1.15B25,2013-06-17 02:40:00,
2013-06-16 22:45:00,59.0,57.9,29.25,NNE,16,0.0,0.0,96,0.00,,,0.02,0,WeatherCatV1.15B25,2013-06-17 02:45:00,
2013-06-16 22:50:00,59.0,57.9,29.24,NNE,16,0.0,0.0,96,0.00,,,0.02,0,WeatherCatV1.15B25,2013-06-17 02:50:00,
2013-06-16 22:55:00,59.0,57.9,29.25,NNE,16,0.0,0.0,96,0.00,,,0.02,0,WeatherCatV1.15B25,2013-06-17 02:55:00,
2013-06-16 23:00:00,59.0,57.9,29.25,NNE,16,0.0,0.0,96,0.00,,,0.02,0,WeatherCatV1.15B25,2013-06-17 03:00:00,
2013-06-16 23:05:00,59.0,57.9,29.25,NNE,16,0.0,1.0,96,0.00,,,0.02,0,WeatherCatV1.15B25,2013-06-17 03:05:00,
2013-06-16 23:10:00,59.0,57.9,29.25,NNE,16,0.0,0.0,96,0.00,,,0.02,0,WeatherCatV1.15B25,2013-06-17 03:10:00,
2013-06-16 23:15:00,58.8,57.9,29.25,NNE,16,0.0,0.0,97,0.00,,,0.02,0,WeatherCatV1.15B25,2013-06-17 03:15:00,
2013-06-16 23:20:00,58.8,57.9,29.25,NNE,16,0.0,0.0,97,0.00,,,0.02,0,WeatherCatV1.15B25,2013-06-17 03:20:00,
2013-06-16 23:25:00,58.7,57.8,29.25,NNE,16,0.0,0.0,97,0.00,,,0.02,0,WeatherCatV1.15B25,2013-06-17 03:25:00,
2013-06-16 23:30:00,58.6,57.7,29.25,NNE,16,0.0,0.0,97,0.00,,,0.02,0,WeatherCatV1.15B25,2013-06-17 03:30:00,
2013-06-16 23:35:00,58.6,57.7,29.25,NW,319,0.0,1.0,97,0.00,,,0.02,0,WeatherCatV1.15B25,2013-06-17 03:35:00,
2013-06-16 23:40:00,58.4,57.3,29.25,NW,319,0.0,0.0,96,0.00,,,0.02,0,WeatherCatV1.15B25,2013-06-17 03:40:00,
2013-06-16 23:45:00,58.3,57.2,29.25,NW,319,0.0,1.0,96,0.00,,,0.02,0,WeatherCatV1.15B25,2013-06-17 03:45:00,
2013-06-16 23:50:00,58.2,57.1,29.25,NW,319,0.0,0.0,96,0.00,,,0.02,0,WeatherCatV1.15B25,2013-06-17 03:50:00,
2013-06-16 23:54:00,58.2,57.4,29.24,NW,319,0.0,0.0,97,0.00,,,0.02,0,WeatherCatV1.15B25,2013-06-17 03:54:00,
2013-06-16 23:59:00,58.1,57.3,29.25,West,271,0.0,0.0,97,0.00,,,0.02,0,WeatherCatV1.15B25,2013-06-17 03:59:00,